Powrót do katalogu

FENGYUN 1C DEB

AktywnyPO
NORAD 35168·DEBRIS·🇨🇳 China

Wystrzelony May 10, 1999 z Taiyuan Satellite Launch Center

Loading…

Następne Przeloty (najbliższe 24 godziny)

TLE

NieaktualneSource: Space-Track

Epoka: Sep 2, 2026, 21:21 UTC

1 35168U 99025DMY 26245.89015455  .00000258  00000-0  13961-3 0  9992
2 35168  98.2420 123.6494 0126141  82.5056 279.0430 14.15787253616618

Śledź FENGYUN 1C DEB w czasie rzeczywistym z AllMySat

Download on the App Store